<?xml version="1.0"?>
<gpx xmlns="http://www.topografix.com/GPX/1/1" xmlns:xsi="http://www.w3.org/2001/XMLSchema-instance" version="1.1" creator="GPX RubyGem 1.0.0 -- http://dougfales.github.io/gpx/" xsi:schemaLocation="http://www.topografix.com/GPX/1/1 http://www.topografix.com/GPX/1/1/gpx.xsd">
  <metadata>
    <name/>
    <time>2026-05-08T03:14:07+00:00</time>
    <bound minlat="90.0" minlon="180.0" maxlat="-90.0" maxlon="-180.0"/>
  </metadata>
  <trk>
    <name/>
    <trkseg>
      <trkpt lat="46.597678" lon="8.325024">
        <time>1970-01-01T00:00:00+00:00</time>
        <ele>1604.0</ele>
      </trkpt>
      <trkpt lat="46.597971" lon="8.324791">
        <time>1970-01-01T00:00:00+00:00</time>
        <ele>1602.0</ele>
      </trkpt>
      <trkpt lat="46.598065" lon="8.324742">
        <time>1970-01-01T00:00:00+00:00</time>
        <ele>1603.0</ele>
      </trkpt>
      <trkpt lat="46.598226" lon="8.324751">
        <time>1970-01-01T00:00:00+00:00</time>
        <ele>1604.0</ele>
      </trkpt>
      <trkpt lat="46.59821" lon="8.324896">
        <time>1970-01-01T00:00:00+00:00</time>
        <ele>1606.0</ele>
      </trkpt>
      <trkpt lat="46.598684" lon="8.324785">
        <time>1970-01-01T00:00:00+00:00</time>
        <ele>1609.0</ele>
      </trkpt>
      <trkpt lat="46.598887" lon="8.324621">
        <time>1970-01-01T00:00:00+00:00</time>
        <ele>1613.0</ele>
      </trkpt>
      <trkpt lat="46.598994" lon="8.324471">
        <time>1970-01-01T00:00:00+00:00</time>
        <ele>1612.0</ele>
      </trkpt>
      <trkpt lat="46.599293" lon="8.324298">
        <time>1970-01-01T00:00:00+00:00</time>
        <ele>1616.0</ele>
      </trkpt>
      <trkpt lat="46.59944" lon="8.324238">
        <time>1970-01-01T00:00:00+00:00</time>
        <ele>1617.0</ele>
      </trkpt>
      <trkpt lat="46.599637" lon="8.324044">
        <time>1970-01-01T00:00:00+00:00</time>
        <ele>1618.0</ele>
      </trkpt>
      <trkpt lat="46.600335" lon="8.324028">
        <time>1970-01-01T00:00:00+00:00</time>
        <ele>1621.0</ele>
      </trkpt>
      <trkpt lat="46.600536" lon="8.324218">
        <time>1970-01-01T00:00:00+00:00</time>
        <ele>1620.0</ele>
      </trkpt>
      <trkpt lat="46.60066" lon="8.324244">
        <time>1970-01-01T00:00:00+00:00</time>
        <ele>1621.0</ele>
      </trkpt>
      <trkpt lat="46.600805" lon="8.324331">
        <time>1970-01-01T00:00:00+00:00</time>
        <ele>1623.0</ele>
      </trkpt>
      <trkpt lat="46.601103" lon="8.324379">
        <time>1970-01-01T00:00:00+00:00</time>
        <ele>1630.0</ele>
      </trkpt>
      <trkpt lat="46.601252" lon="8.324437">
        <time>1970-01-01T00:00:00+00:00</time>
        <ele>1636.0</ele>
      </trkpt>
      <trkpt lat="46.601375" lon="8.324859">
        <time>1970-01-01T00:00:00+00:00</time>
        <ele>1646.0</ele>
      </trkpt>
      <trkpt lat="46.601441" lon="8.324851">
        <time>1970-01-01T00:00:00+00:00</time>
        <ele>1647.0</ele>
      </trkpt>
      <trkpt lat="46.601496" lon="8.324915">
        <time>1970-01-01T00:00:00+00:00</time>
        <ele>1649.0</ele>
      </trkpt>
      <trkpt lat="46.601603" lon="8.324915">
        <time>1970-01-01T00:00:00+00:00</time>
        <ele>1653.0</ele>
      </trkpt>
      <trkpt lat="46.601681" lon="8.32495">
        <time>1970-01-01T00:00:00+00:00</time>
        <ele>1656.0</ele>
      </trkpt>
      <trkpt lat="46.601747" lon="8.324937">
        <time>1970-01-01T00:00:00+00:00</time>
        <ele>1658.0</ele>
      </trkpt>
      <trkpt lat="46.60181" lon="8.324956">
        <time>1970-01-01T00:00:00+00:00</time>
        <ele>1660.0</ele>
      </trkpt>
      <trkpt lat="46.601939" lon="8.324803">
        <time>1970-01-01T00:00:00+00:00</time>
        <ele>1662.0</ele>
      </trkpt>
      <trkpt lat="46.602014" lon="8.324773">
        <time>1970-01-01T00:00:00+00:00</time>
        <ele>1663.0</ele>
      </trkpt>
      <trkpt lat="46.602178" lon="8.324941">
        <time>1970-01-01T00:00:00+00:00</time>
        <ele>1669.0</ele>
      </trkpt>
      <trkpt lat="46.602275" lon="8.32493">
        <time>1970-01-01T00:00:00+00:00</time>
        <ele>1671.0</ele>
      </trkpt>
      <trkpt lat="46.602382" lon="8.324962">
        <time>1970-01-01T00:00:00+00:00</time>
        <ele>1675.0</ele>
      </trkpt>
      <trkpt lat="46.602558" lon="8.324893">
        <time>1970-01-01T00:00:00+00:00</time>
        <ele>1680.0</ele>
      </trkpt>
      <trkpt lat="46.602704" lon="8.324451">
        <time>1970-01-01T00:00:00+00:00</time>
        <ele>1679.0</ele>
      </trkpt>
      <trkpt lat="46.602822" lon="8.324384">
        <time>1970-01-01T00:00:00+00:00</time>
        <ele>1680.0</ele>
      </trkpt>
      <trkpt lat="46.602943" lon="8.32438">
        <time>1970-01-01T00:00:00+00:00</time>
        <ele>1682.0</ele>
      </trkpt>
      <trkpt lat="46.603016" lon="8.324442">
        <time>1970-01-01T00:00:00+00:00</time>
        <ele>1685.0</ele>
      </trkpt>
      <trkpt lat="46.603195" lon="8.324389">
        <time>1970-01-01T00:00:00+00:00</time>
        <ele>1689.0</ele>
      </trkpt>
      <trkpt lat="46.603322" lon="8.324242">
        <time>1970-01-01T00:00:00+00:00</time>
        <ele>1689.0</ele>
      </trkpt>
      <trkpt lat="46.603642" lon="8.324249">
        <time>1970-01-01T00:00:00+00:00</time>
        <ele>1697.0</ele>
      </trkpt>
      <trkpt lat="46.603767" lon="8.324199">
        <time>1970-01-01T00:00:00+00:00</time>
        <ele>1699.0</ele>
      </trkpt>
      <trkpt lat="46.604173" lon="8.324247">
        <time>1970-01-01T00:00:00+00:00</time>
        <ele>1709.0</ele>
      </trkpt>
      <trkpt lat="46.604229" lon="8.324228">
        <time>1970-01-01T00:00:00+00:00</time>
        <ele>1709.0</ele>
      </trkpt>
      <trkpt lat="46.604309" lon="8.324313">
        <time>1970-01-01T00:00:00+00:00</time>
        <ele>1714.0</ele>
      </trkpt>
      <trkpt lat="46.604557" lon="8.324385">
        <time>1970-01-01T00:00:00+00:00</time>
        <ele>1721.0</ele>
      </trkpt>
      <trkpt lat="46.60472" lon="8.324333">
        <time>1970-01-01T00:00:00+00:00</time>
        <ele>1721.0</ele>
      </trkpt>
      <trkpt lat="46.604846" lon="8.324372">
        <time>1970-01-01T00:00:00+00:00</time>
        <ele>1728.0</ele>
      </trkpt>
      <trkpt lat="46.605102" lon="8.324238">
        <time>1970-01-01T00:00:00+00:00</time>
        <ele>1731.0</ele>
      </trkpt>
      <trkpt lat="46.605359" lon="8.32405">
        <time>1970-01-01T00:00:00+00:00</time>
        <ele>1736.0</ele>
      </trkpt>
      <trkpt lat="46.605638" lon="8.32404">
        <time>1970-01-01T00:00:00+00:00</time>
        <ele>1751.0</ele>
      </trkpt>
      <trkpt lat="46.605713" lon="8.323953">
        <time>1970-01-01T00:00:00+00:00</time>
        <ele>1751.0</ele>
      </trkpt>
      <trkpt lat="46.605889" lon="8.323882">
        <time>1970-01-01T00:00:00+00:00</time>
        <ele>1757.0</ele>
      </trkpt>
      <trkpt lat="46.60627" lon="8.323465">
        <time>1970-01-01T00:00:00+00:00</time>
        <ele>1756.0</ele>
      </trkpt>
      <trkpt lat="46.606458" lon="8.323456">
        <time>1970-01-01T00:00:00+00:00</time>
        <ele>1767.0</ele>
      </trkpt>
      <trkpt lat="46.606733" lon="8.323276">
        <time>1970-01-01T00:00:00+00:00</time>
        <ele>1769.0</ele>
      </trkpt>
      <trkpt lat="46.606821" lon="8.323335">
        <time>1970-01-01T00:00:00+00:00</time>
        <ele>1778.0</ele>
      </trkpt>
      <trkpt lat="46.606872" lon="8.323288">
        <time>1970-01-01T00:00:00+00:00</time>
        <ele>1778.0</ele>
      </trkpt>
      <trkpt lat="46.606843" lon="8.323148">
        <time>1970-01-01T00:00:00+00:00</time>
        <ele>1768.0</ele>
      </trkpt>
      <trkpt lat="46.607087" lon="8.32339">
        <time>1970-01-01T00:00:00+00:00</time>
        <ele>1798.0</ele>
      </trkpt>
      <trkpt lat="46.607236" lon="8.323357">
        <time>1970-01-01T00:00:00+00:00</time>
        <ele>1802.0</ele>
      </trkpt>
      <trkpt lat="46.607379" lon="8.323225">
        <time>1970-01-01T00:00:00+00:00</time>
        <ele>1803.0</ele>
      </trkpt>
      <trkpt lat="46.607892" lon="8.323165">
        <time>1970-01-01T00:00:00+00:00</time>
        <ele>1822.0</ele>
      </trkpt>
      <trkpt lat="46.608058" lon="8.322923">
        <time>1970-01-01T00:00:00+00:00</time>
        <ele>1811.0</ele>
      </trkpt>
      <trkpt lat="46.608292" lon="8.322895">
        <time>1970-01-01T00:00:00+00:00</time>
        <ele>1816.0</ele>
      </trkpt>
      <trkpt lat="46.608467" lon="8.32275">
        <time>1970-01-01T00:00:00+00:00</time>
        <ele>1817.0</ele>
      </trkpt>
      <trkpt lat="46.60851" lon="8.322869">
        <time>1970-01-01T00:00:00+00:00</time>
        <ele>1826.0</ele>
      </trkpt>
      <trkpt lat="46.60872" lon="8.322773">
        <time>1970-01-01T00:00:00+00:00</time>
        <ele>1836.0</ele>
      </trkpt>
      <trkpt lat="46.608756" lon="8.322913">
        <time>1970-01-01T00:00:00+00:00</time>
        <ele>1844.0</ele>
      </trkpt>
      <trkpt lat="46.608835" lon="8.322795">
        <time>1970-01-01T00:00:00+00:00</time>
        <ele>1842.0</ele>
      </trkpt>
      <trkpt lat="46.608917" lon="8.322712">
        <time>1970-01-01T00:00:00+00:00</time>
        <ele>1843.0</ele>
      </trkpt>
      <trkpt lat="46.608949" lon="8.322592">
        <time>1970-01-01T00:00:00+00:00</time>
        <ele>1840.0</ele>
      </trkpt>
      <trkpt lat="46.609031" lon="8.32254">
        <time>1970-01-01T00:00:00+00:00</time>
        <ele>1843.0</ele>
      </trkpt>
      <trkpt lat="46.609078" lon="8.322568">
        <time>1970-01-01T00:00:00+00:00</time>
        <ele>1846.0</ele>
      </trkpt>
      <trkpt lat="46.609149" lon="8.322488">
        <time>1970-01-01T00:00:00+00:00</time>
        <ele>1846.0</ele>
      </trkpt>
      <trkpt lat="46.60966" lon="8.322727">
        <time>1970-01-01T00:00:00+00:00</time>
        <ele>1857.0</ele>
      </trkpt>
      <trkpt lat="46.610095" lon="8.32305">
        <time>1970-01-01T00:00:00+00:00</time>
        <ele>1865.0</ele>
      </trkpt>
      <trkpt lat="46.610247" lon="8.322907">
        <time>1970-01-01T00:00:00+00:00</time>
        <ele>1856.0</ele>
      </trkpt>
      <trkpt lat="46.610285" lon="8.322705">
        <time>1970-01-01T00:00:00+00:00</time>
        <ele>1852.0</ele>
      </trkpt>
      <trkpt lat="46.610237" lon="8.322468">
        <time>1970-01-01T00:00:00+00:00</time>
        <ele>1851.0</ele>
      </trkpt>
      <trkpt lat="46.610357" lon="8.322397">
        <time>1970-01-01T00:00:00+00:00</time>
        <ele>1848.0</ele>
      </trkpt>
      <trkpt lat="46.611764" lon="8.321741">
        <time>1970-01-01T00:00:00+00:00</time>
        <ele>1836.0</ele>
      </trkpt>
      <trkpt lat="46.611995" lon="8.321535">
        <time>1970-01-01T00:00:00+00:00</time>
        <ele>1836.0</ele>
      </trkpt>
      <trkpt lat="46.612981" lon="8.319936">
        <time>1970-01-01T00:00:00+00:00</time>
        <ele>1843.0</ele>
      </trkpt>
      <trkpt lat="46.613007" lon="8.319918">
        <time>1970-01-01T00:00:00+00:00</time>
        <ele>1844.0</ele>
      </trkpt>
      <trkpt lat="46.613301" lon="8.320512">
        <time>1970-01-01T00:00:00+00:00</time>
        <ele>1846.0</ele>
      </trkpt>
      <trkpt lat="46.61346" lon="8.321005">
        <time>1970-01-01T00:00:00+00:00</time>
        <ele>1846.0</ele>
      </trkpt>
      <trkpt lat="46.613681" lon="8.321469">
        <time>1970-01-01T00:00:00+00:00</time>
        <ele>1848.0</ele>
      </trkpt>
      <trkpt lat="46.613866" lon="8.321764">
        <time>1970-01-01T00:00:00+00:00</time>
        <ele>1845.0</ele>
      </trkpt>
      <trkpt lat="46.613939" lon="8.321775">
        <time>1970-01-01T00:00:00+00:00</time>
        <ele>1845.0</ele>
      </trkpt>
      <trkpt lat="46.613998" lon="8.321719">
        <time>1970-01-01T00:00:00+00:00</time>
        <ele>1847.0</ele>
      </trkpt>
      <trkpt lat="46.614134" lon="8.321283">
        <time>1970-01-01T00:00:00+00:00</time>
        <ele>1855.0</ele>
      </trkpt>
      <trkpt lat="46.614188" lon="8.321264">
        <time>1970-01-01T00:00:00+00:00</time>
        <ele>1855.0</ele>
      </trkpt>
      <trkpt lat="46.614217" lon="8.321282">
        <time>1970-01-01T00:00:00+00:00</time>
        <ele>1854.0</ele>
      </trkpt>
      <trkpt lat="46.614245" lon="8.321355">
        <time>1970-01-01T00:00:00+00:00</time>
        <ele>1853.0</ele>
      </trkpt>
      <trkpt lat="46.614269" lon="8.321525">
        <time>1970-01-01T00:00:00+00:00</time>
        <ele>1851.0</ele>
      </trkpt>
      <trkpt lat="46.614388" lon="8.321871">
        <time>1970-01-01T00:00:00+00:00</time>
        <ele>1850.0</ele>
      </trkpt>
      <trkpt lat="46.61441" lon="8.321994">
        <time>1970-01-01T00:00:00+00:00</time>
        <ele>1849.0</ele>
      </trkpt>
      <trkpt lat="46.614562" lon="8.322238">
        <time>1970-01-01T00:00:00+00:00</time>
        <ele>1852.0</ele>
      </trkpt>
      <trkpt lat="46.614744" lon="8.322676">
        <time>1970-01-01T00:00:00+00:00</time>
        <ele>1853.0</ele>
      </trkpt>
      <trkpt lat="46.615006" lon="8.323704">
        <time>1970-01-01T00:00:00+00:00</time>
        <ele>1846.0</ele>
      </trkpt>
      <trkpt lat="46.615242" lon="8.324422">
        <time>1970-01-01T00:00:00+00:00</time>
        <ele>1851.0</ele>
      </trkpt>
      <trkpt lat="46.615312" lon="8.324692">
        <time>1970-01-01T00:00:00+00:00</time>
        <ele>1851.0</ele>
      </trkpt>
      <trkpt lat="46.615397" lon="8.324895">
        <time>1970-01-01T00:00:00+00:00</time>
        <ele>1854.0</ele>
      </trkpt>
      <trkpt lat="46.615432" lon="8.32503">
        <time>1970-01-01T00:00:00+00:00</time>
        <ele>1854.0</ele>
      </trkpt>
      <trkpt lat="46.615468" lon="8.325096">
        <time>1970-01-01T00:00:00+00:00</time>
        <ele>1855.0</ele>
      </trkpt>
      <trkpt lat="46.615516" lon="8.325122">
        <time>1970-01-01T00:00:00+00:00</time>
        <ele>1858.0</ele>
      </trkpt>
      <trkpt lat="46.615551" lon="8.325276">
        <time>1970-01-01T00:00:00+00:00</time>
        <ele>1857.0</ele>
      </trkpt>
      <trkpt lat="46.615578" lon="8.325544">
        <time>1970-01-01T00:00:00+00:00</time>
        <ele>1853.0</ele>
      </trkpt>
      <trkpt lat="46.615601" lon="8.325618">
        <time>1970-01-01T00:00:00+00:00</time>
        <ele>1853.0</ele>
      </trkpt>
      <trkpt lat="46.615681" lon="8.325725">
        <time>1970-01-01T00:00:00+00:00</time>
        <ele>1857.0</ele>
      </trkpt>
      <trkpt lat="46.615791" lon="8.325998">
        <time>1970-01-01T00:00:00+00:00</time>
        <ele>1857.0</ele>
      </trkpt>
      <trkpt lat="46.615867" lon="8.326258">
        <time>1970-01-01T00:00:00+00:00</time>
        <ele>1856.0</ele>
      </trkpt>
      <trkpt lat="46.615927" lon="8.326583">
        <time>1970-01-01T00:00:00+00:00</time>
        <ele>1854.0</ele>
      </trkpt>
      <trkpt lat="46.616015" lon="8.326765">
        <time>1970-01-01T00:00:00+00:00</time>
        <ele>1855.0</ele>
      </trkpt>
      <trkpt lat="46.616037" lon="8.326962">
        <time>1970-01-01T00:00:00+00:00</time>
        <ele>1852.0</ele>
      </trkpt>
      <trkpt lat="46.616146" lon="8.327201">
        <time>1970-01-01T00:00:00+00:00</time>
        <ele>1853.0</ele>
      </trkpt>
      <trkpt lat="46.616152" lon="8.327255">
        <time>1970-01-01T00:00:00+00:00</time>
        <ele>1853.0</ele>
      </trkpt>
      <trkpt lat="46.616128" lon="8.327367">
        <time>1970-01-01T00:00:00+00:00</time>
        <ele>1851.0</ele>
      </trkpt>
      <trkpt lat="46.616136" lon="8.327417">
        <time>1970-01-01T00:00:00+00:00</time>
        <ele>1851.0</ele>
      </trkpt>
      <trkpt lat="46.616179" lon="8.327472">
        <time>1970-01-01T00:00:00+00:00</time>
        <ele>1852.0</ele>
      </trkpt>
      <trkpt lat="46.616308" lon="8.327814">
        <time>1970-01-01T00:00:00+00:00</time>
        <ele>1853.0</ele>
      </trkpt>
      <trkpt lat="46.616378" lon="8.327925">
        <time>1970-01-01T00:00:00+00:00</time>
        <ele>1853.0</ele>
      </trkpt>
      <trkpt lat="46.616495" lon="8.327983">
        <time>1970-01-01T00:00:00+00:00</time>
        <ele>1855.0</ele>
      </trkpt>
      <trkpt lat="46.616607" lon="8.328097">
        <time>1970-01-01T00:00:00+00:00</time>
        <ele>1854.0</ele>
      </trkpt>
      <trkpt lat="46.616677" lon="8.328211">
        <time>1970-01-01T00:00:00+00:00</time>
        <ele>1852.0</ele>
      </trkpt>
      <trkpt lat="46.616739" lon="8.328233">
        <time>1970-01-01T00:00:00+00:00</time>
        <ele>1852.0</ele>
      </trkpt>
      <trkpt lat="46.616779" lon="8.328321">
        <time>1970-01-01T00:00:00+00:00</time>
        <ele>1851.0</ele>
      </trkpt>
      <trkpt lat="46.616875" lon="8.328416">
        <time>1970-01-01T00:00:00+00:00</time>
        <ele>1850.0</ele>
      </trkpt>
      <trkpt lat="46.616945" lon="8.328672">
        <time>1970-01-01T00:00:00+00:00</time>
        <ele>1848.0</ele>
      </trkpt>
      <trkpt lat="46.617107" lon="8.328857">
        <time>1970-01-01T00:00:00+00:00</time>
        <ele>1850.0</ele>
      </trkpt>
      <trkpt lat="46.61717" lon="8.328905">
        <time>1970-01-01T00:00:00+00:00</time>
        <ele>1852.0</ele>
      </trkpt>
      <trkpt lat="46.617251" lon="8.329086">
        <time>1970-01-01T00:00:00+00:00</time>
        <ele>1850.0</ele>
      </trkpt>
      <trkpt lat="46.617349" lon="8.329197">
        <time>1970-01-01T00:00:00+00:00</time>
        <ele>1851.0</ele>
      </trkpt>
      <trkpt lat="46.617437" lon="8.329439">
        <time>1970-01-01T00:00:00+00:00</time>
        <ele>1849.0</ele>
      </trkpt>
      <trkpt lat="46.617597" lon="8.3296">
        <time>1970-01-01T00:00:00+00:00</time>
        <ele>1853.0</ele>
      </trkpt>
      <trkpt lat="46.617684" lon="8.329654">
        <time>1970-01-01T00:00:00+00:00</time>
        <ele>1857.0</ele>
      </trkpt>
      <trkpt lat="46.617789" lon="8.329831">
        <time>1970-01-01T00:00:00+00:00</time>
        <ele>1854.0</ele>
      </trkpt>
      <trkpt lat="46.61786" lon="8.32986">
        <time>1970-01-01T00:00:00+00:00</time>
        <ele>1855.0</ele>
      </trkpt>
      <trkpt lat="46.617913" lon="8.329935">
        <time>1970-01-01T00:00:00+00:00</time>
        <ele>1853.0</ele>
      </trkpt>
      <trkpt lat="46.617971" lon="8.329977">
        <time>1970-01-01T00:00:00+00:00</time>
        <ele>1853.0</ele>
      </trkpt>
      <trkpt lat="46.618049" lon="8.330241">
        <time>1970-01-01T00:00:00+00:00</time>
        <ele>1845.0</ele>
      </trkpt>
      <trkpt lat="46.618185" lon="8.33045">
        <time>1970-01-01T00:00:00+00:00</time>
        <ele>1844.0</ele>
      </trkpt>
      <trkpt lat="46.618255" lon="8.330502">
        <time>1970-01-01T00:00:00+00:00</time>
        <ele>1845.0</ele>
      </trkpt>
      <trkpt lat="46.618328" lon="8.330523">
        <time>1970-01-01T00:00:00+00:00</time>
        <ele>1847.0</ele>
      </trkpt>
      <trkpt lat="46.618441" lon="8.330652">
        <time>1970-01-01T00:00:00+00:00</time>
        <ele>1845.0</ele>
      </trkpt>
      <trkpt lat="46.618558" lon="8.330726">
        <time>1970-01-01T00:00:00+00:00</time>
        <ele>1845.0</ele>
      </trkpt>
      <trkpt lat="46.618695" lon="8.330738">
        <time>1970-01-01T00:00:00+00:00</time>
        <ele>1849.0</ele>
      </trkpt>
      <trkpt lat="46.618801" lon="8.330856">
        <time>1970-01-01T00:00:00+00:00</time>
        <ele>1847.0</ele>
      </trkpt>
      <trkpt lat="46.618874" lon="8.330858">
        <time>1970-01-01T00:00:00+00:00</time>
        <ele>1849.0</ele>
      </trkpt>
      <trkpt lat="46.618907" lon="8.33093">
        <time>1970-01-01T00:00:00+00:00</time>
        <ele>1848.0</ele>
      </trkpt>
      <trkpt lat="46.619188" lon="8.331134">
        <time>1970-01-01T00:00:00+00:00</time>
        <ele>1853.0</ele>
      </trkpt>
      <trkpt lat="46.6192" lon="8.331176">
        <time>1970-01-01T00:00:00+00:00</time>
        <ele>1852.0</ele>
      </trkpt>
      <trkpt lat="46.619303" lon="8.331321">
        <time>1970-01-01T00:00:00+00:00</time>
        <ele>1851.0</ele>
      </trkpt>
      <trkpt lat="46.619355" lon="8.331365">
        <time>1970-01-01T00:00:00+00:00</time>
        <ele>1851.0</ele>
      </trkpt>
      <trkpt lat="46.619716" lon="8.331505">
        <time>1970-01-01T00:00:00+00:00</time>
        <ele>1857.0</ele>
      </trkpt>
      <trkpt lat="46.619787" lon="8.33156">
        <time>1970-01-01T00:00:00+00:00</time>
        <ele>1858.0</ele>
      </trkpt>
      <trkpt lat="46.619857" lon="8.33158">
        <time>1970-01-01T00:00:00+00:00</time>
        <ele>1860.0</ele>
      </trkpt>
      <trkpt lat="46.619896" lon="8.33162">
        <time>1970-01-01T00:00:00+00:00</time>
        <ele>1860.0</ele>
      </trkpt>
      <trkpt lat="46.619996" lon="8.331828">
        <time>1970-01-01T00:00:00+00:00</time>
        <ele>1857.0</ele>
      </trkpt>
      <trkpt lat="46.620096" lon="8.331957">
        <time>1970-01-01T00:00:00+00:00</time>
        <ele>1858.0</ele>
      </trkpt>
      <trkpt lat="46.620181" lon="8.332008">
        <time>1970-01-01T00:00:00+00:00</time>
        <ele>1860.0</ele>
      </trkpt>
      <trkpt lat="46.620213" lon="8.332052">
        <time>1970-01-01T00:00:00+00:00</time>
        <ele>1860.0</ele>
      </trkpt>
      <trkpt lat="46.62048" lon="8.332275">
        <time>1970-01-01T00:00:00+00:00</time>
        <ele>1860.0</ele>
      </trkpt>
      <trkpt lat="46.620568" lon="8.332301">
        <time>1970-01-01T00:00:00+00:00</time>
        <ele>1862.0</ele>
      </trkpt>
      <trkpt lat="46.620615" lon="8.332348">
        <time>1970-01-01T00:00:00+00:00</time>
        <ele>1862.0</ele>
      </trkpt>
      <trkpt lat="46.620774" lon="8.332368">
        <time>1970-01-01T00:00:00+00:00</time>
        <ele>1868.0</ele>
      </trkpt>
      <trkpt lat="46.620808" lon="8.332397">
        <time>1970-01-01T00:00:00+00:00</time>
        <ele>1868.0</ele>
      </trkpt>
      <trkpt lat="46.62099" lon="8.332435">
        <time>1970-01-01T00:00:00+00:00</time>
        <ele>1873.0</ele>
      </trkpt>
      <trkpt lat="46.621099" lon="8.33251">
        <time>1970-01-01T00:00:00+00:00</time>
        <ele>1873.0</ele>
      </trkpt>
      <trkpt lat="46.621207" lon="8.332555">
        <time>1970-01-01T00:00:00+00:00</time>
        <ele>1875.0</ele>
      </trkpt>
      <trkpt lat="46.621284" lon="8.332627">
        <time>1970-01-01T00:00:00+00:00</time>
        <ele>1875.0</ele>
      </trkpt>
      <trkpt lat="46.621336" lon="8.332613">
        <time>1970-01-01T00:00:00+00:00</time>
        <ele>1876.0</ele>
      </trkpt>
      <trkpt lat="46.621391" lon="8.33267">
        <time>1970-01-01T00:00:00+00:00</time>
        <ele>1876.0</ele>
      </trkpt>
      <trkpt lat="46.621449" lon="8.332667">
        <time>1970-01-01T00:00:00+00:00</time>
        <ele>1878.0</ele>
      </trkpt>
      <trkpt lat="46.621498" lon="8.332748">
        <time>1970-01-01T00:00:00+00:00</time>
        <ele>1877.0</ele>
      </trkpt>
      <trkpt lat="46.621935" lon="8.333115">
        <time>1970-01-01T00:00:00+00:00</time>
        <ele>1877.0</ele>
      </trkpt>
      <trkpt lat="46.622067" lon="8.333289">
        <time>1970-01-01T00:00:00+00:00</time>
        <ele>1877.0</ele>
      </trkpt>
      <trkpt lat="46.62232" lon="8.33342">
        <time>1970-01-01T00:00:00+00:00</time>
        <ele>1882.0</ele>
      </trkpt>
      <trkpt lat="46.622469" lon="8.333594">
        <time>1970-01-01T00:00:00+00:00</time>
        <ele>1884.0</ele>
      </trkpt>
      <trkpt lat="46.622549" lon="8.333619">
        <time>1970-01-01T00:00:00+00:00</time>
        <ele>1886.0</ele>
      </trkpt>
      <trkpt lat="46.622633" lon="8.333704">
        <time>1970-01-01T00:00:00+00:00</time>
        <ele>1888.0</ele>
      </trkpt>
      <trkpt lat="46.622781" lon="8.333754">
        <time>1970-01-01T00:00:00+00:00</time>
        <ele>1891.0</ele>
      </trkpt>
      <trkpt lat="46.622831" lon="8.333807">
        <time>1970-01-01T00:00:00+00:00</time>
        <ele>1892.0</ele>
      </trkpt>
      <trkpt lat="46.622977" lon="8.33389">
        <time>1970-01-01T00:00:00+00:00</time>
        <ele>1896.0</ele>
      </trkpt>
      <trkpt lat="46.623018" lon="8.333941">
        <time>1970-01-01T00:00:00+00:00</time>
        <ele>1898.0</ele>
      </trkpt>
      <trkpt lat="46.623057" lon="8.333941">
        <time>1970-01-01T00:00:00+00:00</time>
        <ele>1899.0</ele>
      </trkpt>
      <trkpt lat="46.623086" lon="8.334036">
        <time>1970-01-01T00:00:00+00:00</time>
        <ele>1900.0</ele>
      </trkpt>
      <trkpt lat="46.623133" lon="8.334032">
        <time>1970-01-01T00:00:00+00:00</time>
        <ele>1901.0</ele>
      </trkpt>
      <trkpt lat="46.62316" lon="8.334056">
        <time>1970-01-01T00:00:00+00:00</time>
        <ele>1902.0</ele>
      </trkpt>
      <trkpt lat="46.623184" lon="8.334038">
        <time>1970-01-01T00:00:00+00:00</time>
        <ele>1903.0</ele>
      </trkpt>
      <trkpt lat="46.623207" lon="8.334115">
        <time>1970-01-01T00:00:00+00:00</time>
        <ele>1903.0</ele>
      </trkpt>
      <trkpt lat="46.623285" lon="8.334228">
        <time>1970-01-01T00:00:00+00:00</time>
        <ele>1906.0</ele>
      </trkpt>
      <trkpt lat="46.623363" lon="8.334254">
        <time>1970-01-01T00:00:00+00:00</time>
        <ele>1908.0</ele>
      </trkpt>
      <trkpt lat="46.623431" lon="8.334193">
        <time>1970-01-01T00:00:00+00:00</time>
        <ele>1909.0</ele>
      </trkpt>
      <trkpt lat="46.623468" lon="8.334191">
        <time>1970-01-01T00:00:00+00:00</time>
        <ele>1910.0</ele>
      </trkpt>
      <trkpt lat="46.623511" lon="8.334236">
        <time>1970-01-01T00:00:00+00:00</time>
        <ele>1912.0</ele>
      </trkpt>
      <trkpt lat="46.623746" lon="8.334301">
        <time>1970-01-01T00:00:00+00:00</time>
        <ele>1918.0</ele>
      </trkpt>
      <trkpt lat="46.623792" lon="8.334265">
        <time>1970-01-01T00:00:00+00:00</time>
        <ele>1920.0</ele>
      </trkpt>
      <trkpt lat="46.623861" lon="8.334273">
        <time>1970-01-01T00:00:00+00:00</time>
        <ele>1922.0</ele>
      </trkpt>
      <trkpt lat="46.623861" lon="8.334402">
        <time>1970-01-01T00:00:00+00:00</time>
        <ele>1921.0</ele>
      </trkpt>
      <trkpt lat="46.623881" lon="8.334445">
        <time>1970-01-01T00:00:00+00:00</time>
        <ele>1922.0</ele>
      </trkpt>
      <trkpt lat="46.623847" lon="8.335091">
        <time>1970-01-01T00:00:00+00:00</time>
        <ele>1929.0</ele>
      </trkpt>
      <trkpt lat="46.623857" lon="8.335117">
        <time>1970-01-01T00:00:00+00:00</time>
        <ele>1930.0</ele>
      </trkpt>
      <trkpt lat="46.623916" lon="8.335103">
        <time>1970-01-01T00:00:00+00:00</time>
        <ele>1930.0</ele>
      </trkpt>
      <trkpt lat="46.624005" lon="8.33514">
        <time>1970-01-01T00:00:00+00:00</time>
        <ele>1933.0</ele>
      </trkpt>
      <trkpt lat="46.624173" lon="8.335236">
        <time>1970-01-01T00:00:00+00:00</time>
        <ele>1940.0</ele>
      </trkpt>
      <trkpt lat="46.624236" lon="8.335295">
        <time>1970-01-01T00:00:00+00:00</time>
        <ele>1944.0</ele>
      </trkpt>
      <trkpt lat="46.624545" lon="8.335442">
        <time>1970-01-01T00:00:00+00:00</time>
        <ele>1961.0</ele>
      </trkpt>
      <trkpt lat="46.624529" lon="8.335504">
        <time>1970-01-01T00:00:00+00:00</time>
        <ele>1962.0</ele>
      </trkpt>
      <trkpt lat="46.624609" lon="8.335559">
        <time>1970-01-01T00:00:00+00:00</time>
        <ele>1968.0</ele>
      </trkpt>
      <trkpt lat="46.624659" lon="8.33553">
        <time>1970-01-01T00:00:00+00:00</time>
        <ele>1969.0</ele>
      </trkpt>
      <trkpt lat="46.624712" lon="8.335561">
        <time>1970-01-01T00:00:00+00:00</time>
        <ele>1972.0</ele>
      </trkpt>
      <trkpt lat="46.624686" lon="8.335651">
        <time>1970-01-01T00:00:00+00:00</time>
        <ele>1974.0</ele>
      </trkpt>
      <trkpt lat="46.624748" lon="8.335659">
        <time>1970-01-01T00:00:00+00:00</time>
        <ele>1976.0</ele>
      </trkpt>
      <trkpt lat="46.624757" lon="8.33571">
        <time>1970-01-01T00:00:00+00:00</time>
        <ele>1978.0</ele>
      </trkpt>
      <trkpt lat="46.624828" lon="8.335748">
        <time>1970-01-01T00:00:00+00:00</time>
        <ele>1982.0</ele>
      </trkpt>
      <trkpt lat="46.624892" lon="8.335858">
        <time>1970-01-01T00:00:00+00:00</time>
        <ele>1989.0</ele>
      </trkpt>
      <trkpt lat="46.624861" lon="8.335956">
        <time>1970-01-01T00:00:00+00:00</time>
        <ele>1992.0</ele>
      </trkpt>
      <trkpt lat="46.624919" lon="8.336028">
        <time>1970-01-01T00:00:00+00:00</time>
        <ele>1998.0</ele>
      </trkpt>
      <trkpt lat="46.624868" lon="8.336126">
        <time>1970-01-01T00:00:00+00:00</time>
        <ele>2001.0</ele>
      </trkpt>
      <trkpt lat="46.624967" lon="8.336161">
        <time>1970-01-01T00:00:00+00:00</time>
        <ele>2007.0</ele>
      </trkpt>
      <trkpt lat="46.624945" lon="8.336208">
        <time>1970-01-01T00:00:00+00:00</time>
        <ele>2008.0</ele>
      </trkpt>
      <trkpt lat="46.624982" lon="8.336237">
        <time>1970-01-01T00:00:00+00:00</time>
        <ele>2011.0</ele>
      </trkpt>
      <trkpt lat="46.625012" lon="8.336224">
        <time>1970-01-01T00:00:00+00:00</time>
        <ele>2011.0</ele>
      </trkpt>
      <trkpt lat="46.625045" lon="8.336263">
        <time>1970-01-01T00:00:00+00:00</time>
        <ele>2014.0</ele>
      </trkpt>
      <trkpt lat="46.625187" lon="8.336349">
        <time>1970-01-01T00:00:00+00:00</time>
        <ele>2022.0</ele>
      </trkpt>
      <trkpt lat="46.625215" lon="8.33632">
        <time>1970-01-01T00:00:00+00:00</time>
        <ele>2022.0</ele>
      </trkpt>
      <trkpt lat="46.625275" lon="8.336351">
        <time>1970-01-01T00:00:00+00:00</time>
        <ele>2024.0</ele>
      </trkpt>
      <trkpt lat="46.625329" lon="8.336353">
        <time>1970-01-01T00:00:00+00:00</time>
        <ele>2025.0</ele>
      </trkpt>
      <trkpt lat="46.625361" lon="8.336408">
        <time>1970-01-01T00:00:00+00:00</time>
        <ele>2027.0</ele>
      </trkpt>
      <trkpt lat="46.625406" lon="8.336437">
        <time>1970-01-01T00:00:00+00:00</time>
        <ele>2029.0</ele>
      </trkpt>
      <trkpt lat="46.625615" lon="8.336441">
        <time>1970-01-01T00:00:00+00:00</time>
        <ele>2035.0</ele>
      </trkpt>
      <trkpt lat="46.625703" lon="8.336494">
        <time>1970-01-01T00:00:00+00:00</time>
        <ele>2039.0</ele>
      </trkpt>
      <trkpt lat="46.62577" lon="8.336666">
        <time>1970-01-01T00:00:00+00:00</time>
        <ele>2046.0</ele>
      </trkpt>
      <trkpt lat="46.625926" lon="8.336703">
        <time>1970-01-01T00:00:00+00:00</time>
        <ele>2052.0</ele>
      </trkpt>
      <trkpt lat="46.62589" lon="8.336809">
        <time>1970-01-01T00:00:00+00:00</time>
        <ele>2055.0</ele>
      </trkpt>
      <trkpt lat="46.625903" lon="8.336873">
        <time>1970-01-01T00:00:00+00:00</time>
        <ele>2058.0</ele>
      </trkpt>
      <trkpt lat="46.626101" lon="8.337052">
        <time>1970-01-01T00:00:00+00:00</time>
        <ele>2071.0</ele>
      </trkpt>
      <trkpt lat="46.626066" lon="8.33714">
        <time>1970-01-01T00:00:00+00:00</time>
        <ele>2073.0</ele>
      </trkpt>
      <trkpt lat="46.626105" lon="8.337193">
        <time>1970-01-01T00:00:00+00:00</time>
        <ele>2076.0</ele>
      </trkpt>
      <trkpt lat="46.626087" lon="8.337238">
        <time>1970-01-01T00:00:00+00:00</time>
        <ele>2077.0</ele>
      </trkpt>
      <trkpt lat="46.626137" lon="8.337304">
        <time>1970-01-01T00:00:00+00:00</time>
        <ele>2080.0</ele>
      </trkpt>
      <trkpt lat="46.626126" lon="8.337384">
        <time>1970-01-01T00:00:00+00:00</time>
        <ele>2082.0</ele>
      </trkpt>
      <trkpt lat="46.626226" lon="8.337561">
        <time>1970-01-01T00:00:00+00:00</time>
        <ele>2096.0</ele>
      </trkpt>
      <trkpt lat="46.626196" lon="8.337651">
        <time>1970-01-01T00:00:00+00:00</time>
        <ele>2102.0</ele>
      </trkpt>
      <trkpt lat="46.626442" lon="8.337864">
        <time>1970-01-01T00:00:00+00:00</time>
        <ele>2126.0</ele>
      </trkpt>
      <trkpt lat="46.626669" lon="8.337987">
        <time>1970-01-01T00:00:00+00:00</time>
        <ele>2138.0</ele>
      </trkpt>
      <trkpt lat="46.626757" lon="8.338262">
        <time>1970-01-01T00:00:00+00:00</time>
        <ele>2157.0</ele>
      </trkpt>
      <trkpt lat="46.626926" lon="8.338349">
        <time>1970-01-01T00:00:00+00:00</time>
        <ele>2163.0</ele>
      </trkpt>
      <trkpt lat="46.62703" lon="8.338351">
        <time>1970-01-01T00:00:00+00:00</time>
        <ele>2163.0</ele>
      </trkpt>
      <trkpt lat="46.627176" lon="8.338485">
        <time>1970-01-01T00:00:00+00:00</time>
        <ele>2172.0</ele>
      </trkpt>
      <trkpt lat="46.627129" lon="8.338533">
        <time>1970-01-01T00:00:00+00:00</time>
        <ele>2175.0</ele>
      </trkpt>
      <trkpt lat="46.627136" lon="8.338606">
        <time>1970-01-01T00:00:00+00:00</time>
        <ele>2179.0</ele>
      </trkpt>
      <trkpt lat="46.627199" lon="8.338625">
        <time>1970-01-01T00:00:00+00:00</time>
        <ele>2180.0</ele>
      </trkpt>
      <trkpt lat="46.627204" lon="8.338729">
        <time>1970-01-01T00:00:00+00:00</time>
        <ele>2186.0</ele>
      </trkpt>
      <trkpt lat="46.627231" lon="8.338786">
        <time>1970-01-01T00:00:00+00:00</time>
        <ele>2187.0</ele>
      </trkpt>
      <trkpt lat="46.627202" lon="8.338903">
        <time>1970-01-01T00:00:00+00:00</time>
        <ele>2192.0</ele>
      </trkpt>
      <trkpt lat="46.627242" lon="8.338935">
        <time>1970-01-01T00:00:00+00:00</time>
        <ele>2192.0</ele>
      </trkpt>
      <trkpt lat="46.62723" lon="8.338978">
        <time>1970-01-01T00:00:00+00:00</time>
        <ele>2194.0</ele>
      </trkpt>
      <trkpt lat="46.627276" lon="8.338999">
        <time>1970-01-01T00:00:00+00:00</time>
        <ele>2195.0</ele>
      </trkpt>
      <trkpt lat="46.627253" lon="8.33906">
        <time>1970-01-01T00:00:00+00:00</time>
        <ele>2200.0</ele>
      </trkpt>
      <trkpt lat="46.627297" lon="8.339068">
        <time>1970-01-01T00:00:00+00:00</time>
        <ele>2201.0</ele>
      </trkpt>
      <trkpt lat="46.627265" lon="8.33923">
        <time>1970-01-01T00:00:00+00:00</time>
        <ele>2215.0</ele>
      </trkpt>
      <trkpt lat="46.627327" lon="8.339254">
        <time>1970-01-01T00:00:00+00:00</time>
        <ele>2217.0</ele>
      </trkpt>
      <trkpt lat="46.62739" lon="8.339361">
        <time>1970-01-01T00:00:00+00:00</time>
        <ele>2226.0</ele>
      </trkpt>
      <trkpt lat="46.627497" lon="8.339426">
        <time>1970-01-01T00:00:00+00:00</time>
        <ele>2231.0</ele>
      </trkpt>
      <trkpt lat="46.627679" lon="8.339451">
        <time>1970-01-01T00:00:00+00:00</time>
        <ele>2234.0</ele>
      </trkpt>
      <trkpt lat="46.627761" lon="8.339495">
        <time>1970-01-01T00:00:00+00:00</time>
        <ele>2238.0</ele>
      </trkpt>
      <trkpt lat="46.627811" lon="8.339438">
        <time>1970-01-01T00:00:00+00:00</time>
        <ele>2235.0</ele>
      </trkpt>
      <trkpt lat="46.627936" lon="8.339446">
        <time>1970-01-01T00:00:00+00:00</time>
        <ele>2236.0</ele>
      </trkpt>
      <trkpt lat="46.628201" lon="8.339661">
        <time>1970-01-01T00:00:00+00:00</time>
        <ele>2244.0</ele>
      </trkpt>
      <trkpt lat="46.628643" lon="8.340202">
        <time>1970-01-01T00:00:00+00:00</time>
        <ele>2257.0</ele>
      </trkpt>
      <trkpt lat="46.628614" lon="8.340579">
        <time>1970-01-01T00:00:00+00:00</time>
        <ele>2274.0</ele>
      </trkpt>
      <trkpt lat="46.628673" lon="8.341009">
        <time>1970-01-01T00:00:00+00:00</time>
        <ele>2299.0</ele>
      </trkpt>
      <trkpt lat="46.628979" lon="8.341893">
        <time>1970-01-01T00:00:00+00:00</time>
        <ele>2328.0</ele>
      </trkpt>
      <trkpt lat="46.628908" lon="8.34215">
        <time>1970-01-01T00:00:00+00:00</time>
        <ele>2348.0</ele>
      </trkpt>
      <trkpt lat="46.629156" lon="8.342536">
        <time>1970-01-01T00:00:00+00:00</time>
        <ele>2363.0</ele>
      </trkpt>
      <trkpt lat="46.629675" lon="8.342665">
        <time>1970-01-01T00:00:00+00:00</time>
        <ele>2365.0</ele>
      </trkpt>
      <trkpt lat="46.630087" lon="8.342708">
        <time>1970-01-01T00:00:00+00:00</time>
        <ele>2375.0</ele>
      </trkpt>
      <trkpt lat="46.630512" lon="8.343034">
        <time>1970-01-01T00:00:00+00:00</time>
        <ele>2405.0</ele>
      </trkpt>
      <trkpt lat="46.630911" lon="8.343008">
        <time>1970-01-01T00:00:00+00:00</time>
        <ele>2414.0</ele>
      </trkpt>
      <trkpt lat="46.631046" lon="8.342607">
        <time>1970-01-01T00:00:00+00:00</time>
        <ele>2400.0</ele>
      </trkpt>
      <trkpt lat="46.631186" lon="8.34262">
        <time>1970-01-01T00:00:00+00:00</time>
        <ele>2404.0</ele>
      </trkpt>
      <trkpt lat="46.631298" lon="8.342719">
        <time>1970-01-01T00:00:00+00:00</time>
        <ele>2410.0</ele>
      </trkpt>
      <trkpt lat="46.631298" lon="8.342719">
        <time>1970-01-01T00:00:00+00:00</time>
        <ele>2410.0</ele>
      </trkpt>
      <trkpt lat="46.631186" lon="8.34262">
        <time>1970-01-01T00:00:00+00:00</time>
        <ele>2404.0</ele>
      </trkpt>
      <trkpt lat="46.631046" lon="8.342607">
        <time>1970-01-01T00:00:00+00:00</time>
        <ele>2400.0</ele>
      </trkpt>
      <trkpt lat="46.630911" lon="8.343008">
        <time>1970-01-01T00:00:00+00:00</time>
        <ele>2414.0</ele>
      </trkpt>
      <trkpt lat="46.630512" lon="8.343034">
        <time>1970-01-01T00:00:00+00:00</time>
        <ele>2405.0</ele>
      </trkpt>
      <trkpt lat="46.630087" lon="8.342708">
        <time>1970-01-01T00:00:00+00:00</time>
        <ele>2375.0</ele>
      </trkpt>
      <trkpt lat="46.629675" lon="8.342665">
        <time>1970-01-01T00:00:00+00:00</time>
        <ele>2365.0</ele>
      </trkpt>
      <trkpt lat="46.629156" lon="8.342536">
        <time>1970-01-01T00:00:00+00:00</time>
        <ele>2363.0</ele>
      </trkpt>
      <trkpt lat="46.628908" lon="8.34215">
        <time>1970-01-01T00:00:00+00:00</time>
        <ele>2348.0</ele>
      </trkpt>
      <trkpt lat="46.628979" lon="8.341893">
        <time>1970-01-01T00:00:00+00:00</time>
        <ele>2328.0</ele>
      </trkpt>
      <trkpt lat="46.628673" lon="8.341009">
        <time>1970-01-01T00:00:00+00:00</time>
        <ele>2299.0</ele>
      </trkpt>
      <trkpt lat="46.628614" lon="8.340579">
        <time>1970-01-01T00:00:00+00:00</time>
        <ele>2274.0</ele>
      </trkpt>
      <trkpt lat="46.628643" lon="8.340202">
        <time>1970-01-01T00:00:00+00:00</time>
        <ele>2257.0</ele>
      </trkpt>
      <trkpt lat="46.628201" lon="8.339661">
        <time>1970-01-01T00:00:00+00:00</time>
        <ele>2244.0</ele>
      </trkpt>
      <trkpt lat="46.627936" lon="8.339446">
        <time>1970-01-01T00:00:00+00:00</time>
        <ele>2236.0</ele>
      </trkpt>
      <trkpt lat="46.627811" lon="8.339438">
        <time>1970-01-01T00:00:00+00:00</time>
        <ele>2235.0</ele>
      </trkpt>
      <trkpt lat="46.627761" lon="8.339495">
        <time>1970-01-01T00:00:00+00:00</time>
        <ele>2238.0</ele>
      </trkpt>
      <trkpt lat="46.627679" lon="8.339451">
        <time>1970-01-01T00:00:00+00:00</time>
        <ele>2234.0</ele>
      </trkpt>
      <trkpt lat="46.627497" lon="8.339426">
        <time>1970-01-01T00:00:00+00:00</time>
        <ele>2231.0</ele>
      </trkpt>
      <trkpt lat="46.62739" lon="8.339361">
        <time>1970-01-01T00:00:00+00:00</time>
        <ele>2226.0</ele>
      </trkpt>
      <trkpt lat="46.627327" lon="8.339254">
        <time>1970-01-01T00:00:00+00:00</time>
        <ele>2217.0</ele>
      </trkpt>
      <trkpt lat="46.627265" lon="8.33923">
        <time>1970-01-01T00:00:00+00:00</time>
        <ele>2215.0</ele>
      </trkpt>
      <trkpt lat="46.627297" lon="8.339068">
        <time>1970-01-01T00:00:00+00:00</time>
        <ele>2201.0</ele>
      </trkpt>
      <trkpt lat="46.627253" lon="8.33906">
        <time>1970-01-01T00:00:00+00:00</time>
        <ele>2200.0</ele>
      </trkpt>
      <trkpt lat="46.627276" lon="8.338999">
        <time>1970-01-01T00:00:00+00:00</time>
        <ele>2195.0</ele>
      </trkpt>
      <trkpt lat="46.62723" lon="8.338978">
        <time>1970-01-01T00:00:00+00:00</time>
        <ele>2194.0</ele>
      </trkpt>
      <trkpt lat="46.627242" lon="8.338935">
        <time>1970-01-01T00:00:00+00:00</time>
        <ele>2192.0</ele>
      </trkpt>
      <trkpt lat="46.627202" lon="8.338903">
        <time>1970-01-01T00:00:00+00:00</time>
        <ele>2192.0</ele>
      </trkpt>
      <trkpt lat="46.627231" lon="8.338786">
        <time>1970-01-01T00:00:00+00:00</time>
        <ele>2187.0</ele>
      </trkpt>
      <trkpt lat="46.627204" lon="8.338729">
        <time>1970-01-01T00:00:00+00:00</time>
        <ele>2186.0</ele>
      </trkpt>
      <trkpt lat="46.627199" lon="8.338625">
        <time>1970-01-01T00:00:00+00:00</time>
        <ele>2180.0</ele>
      </trkpt>
      <trkpt lat="46.627136" lon="8.338606">
        <time>1970-01-01T00:00:00+00:00</time>
        <ele>2179.0</ele>
      </trkpt>
      <trkpt lat="46.627129" lon="8.338533">
        <time>1970-01-01T00:00:00+00:00</time>
        <ele>2175.0</ele>
      </trkpt>
      <trkpt lat="46.627176" lon="8.338485">
        <time>1970-01-01T00:00:00+00:00</time>
        <ele>2172.0</ele>
      </trkpt>
      <trkpt lat="46.62703" lon="8.338351">
        <time>1970-01-01T00:00:00+00:00</time>
        <ele>2163.0</ele>
      </trkpt>
      <trkpt lat="46.626926" lon="8.338349">
        <time>1970-01-01T00:00:00+00:00</time>
        <ele>2163.0</ele>
      </trkpt>
      <trkpt lat="46.626757" lon="8.338262">
        <time>1970-01-01T00:00:00+00:00</time>
        <ele>2157.0</ele>
      </trkpt>
      <trkpt lat="46.626669" lon="8.337987">
        <time>1970-01-01T00:00:00+00:00</time>
        <ele>2138.0</ele>
      </trkpt>
      <trkpt lat="46.626442" lon="8.337864">
        <time>1970-01-01T00:00:00+00:00</time>
        <ele>2126.0</ele>
      </trkpt>
      <trkpt lat="46.626196" lon="8.337651">
        <time>1970-01-01T00:00:00+00:00</time>
        <ele>2102.0</ele>
      </trkpt>
      <trkpt lat="46.626226" lon="8.337561">
        <time>1970-01-01T00:00:00+00:00</time>
        <ele>2096.0</ele>
      </trkpt>
      <trkpt lat="46.626126" lon="8.337384">
        <time>1970-01-01T00:00:00+00:00</time>
        <ele>2082.0</ele>
      </trkpt>
      <trkpt lat="46.626137" lon="8.337304">
        <time>1970-01-01T00:00:00+00:00</time>
        <ele>2080.0</ele>
      </trkpt>
      <trkpt lat="46.626087" lon="8.337238">
        <time>1970-01-01T00:00:00+00:00</time>
        <ele>2077.0</ele>
      </trkpt>
      <trkpt lat="46.626105" lon="8.337193">
        <time>1970-01-01T00:00:00+00:00</time>
        <ele>2076.0</ele>
      </trkpt>
      <trkpt lat="46.626066" lon="8.33714">
        <time>1970-01-01T00:00:00+00:00</time>
        <ele>2073.0</ele>
      </trkpt>
      <trkpt lat="46.626101" lon="8.337052">
        <time>1970-01-01T00:00:00+00:00</time>
        <ele>2071.0</ele>
      </trkpt>
      <trkpt lat="46.625903" lon="8.336873">
        <time>1970-01-01T00:00:00+00:00</time>
        <ele>2058.0</ele>
      </trkpt>
      <trkpt lat="46.62589" lon="8.336809">
        <time>1970-01-01T00:00:00+00:00</time>
        <ele>2055.0</ele>
      </trkpt>
      <trkpt lat="46.625926" lon="8.336703">
        <time>1970-01-01T00:00:00+00:00</time>
        <ele>2052.0</ele>
      </trkpt>
      <trkpt lat="46.62577" lon="8.336666">
        <time>1970-01-01T00:00:00+00:00</time>
        <ele>2046.0</ele>
      </trkpt>
      <trkpt lat="46.625703" lon="8.336494">
        <time>1970-01-01T00:00:00+00:00</time>
        <ele>2039.0</ele>
      </trkpt>
      <trkpt lat="46.625615" lon="8.336441">
        <time>1970-01-01T00:00:00+00:00</time>
        <ele>2035.0</ele>
      </trkpt>
      <trkpt lat="46.625406" lon="8.336437">
        <time>1970-01-01T00:00:00+00:00</time>
        <ele>2029.0</ele>
      </trkpt>
      <trkpt lat="46.625361" lon="8.336408">
        <time>1970-01-01T00:00:00+00:00</time>
        <ele>2027.0</ele>
      </trkpt>
      <trkpt lat="46.625329" lon="8.336353">
        <time>1970-01-01T00:00:00+00:00</time>
        <ele>2025.0</ele>
      </trkpt>
      <trkpt lat="46.625275" lon="8.336351">
        <time>1970-01-01T00:00:00+00:00</time>
        <ele>2024.0</ele>
      </trkpt>
      <trkpt lat="46.625215" lon="8.33632">
        <time>1970-01-01T00:00:00+00:00</time>
        <ele>2022.0</ele>
      </trkpt>
      <trkpt lat="46.625187" lon="8.336349">
        <time>1970-01-01T00:00:00+00:00</time>
        <ele>2022.0</ele>
      </trkpt>
      <trkpt lat="46.625045" lon="8.336263">
        <time>1970-01-01T00:00:00+00:00</time>
        <ele>2014.0</ele>
      </trkpt>
      <trkpt lat="46.625012" lon="8.336224">
        <time>1970-01-01T00:00:00+00:00</time>
        <ele>2011.0</ele>
      </trkpt>
      <trkpt lat="46.624982" lon="8.336237">
        <time>1970-01-01T00:00:00+00:00</time>
        <ele>2011.0</ele>
      </trkpt>
      <trkpt lat="46.624945" lon="8.336208">
        <time>1970-01-01T00:00:00+00:00</time>
        <ele>2008.0</ele>
      </trkpt>
      <trkpt lat="46.624967" lon="8.336161">
        <time>1970-01-01T00:00:00+00:00</time>
        <ele>2007.0</ele>
      </trkpt>
      <trkpt lat="46.624868" lon="8.336126">
        <time>1970-01-01T00:00:00+00:00</time>
        <ele>2001.0</ele>
      </trkpt>
      <trkpt lat="46.624919" lon="8.336028">
        <time>1970-01-01T00:00:00+00:00</time>
        <ele>1998.0</ele>
      </trkpt>
      <trkpt lat="46.624861" lon="8.335956">
        <time>1970-01-01T00:00:00+00:00</time>
        <ele>1992.0</ele>
      </trkpt>
      <trkpt lat="46.624892" lon="8.335858">
        <time>1970-01-01T00:00:00+00:00</time>
        <ele>1989.0</ele>
      </trkpt>
      <trkpt lat="46.624828" lon="8.335748">
        <time>1970-01-01T00:00:00+00:00</time>
        <ele>1982.0</ele>
      </trkpt>
      <trkpt lat="46.624757" lon="8.33571">
        <time>1970-01-01T00:00:00+00:00</time>
        <ele>1978.0</ele>
      </trkpt>
      <trkpt lat="46.624748" lon="8.335659">
        <time>1970-01-01T00:00:00+00:00</time>
        <ele>1976.0</ele>
      </trkpt>
      <trkpt lat="46.624686" lon="8.335651">
        <time>1970-01-01T00:00:00+00:00</time>
        <ele>1974.0</ele>
      </trkpt>
      <trkpt lat="46.624712" lon="8.335561">
        <time>1970-01-01T00:00:00+00:00</time>
        <ele>1972.0</ele>
      </trkpt>
      <trkpt lat="46.624659" lon="8.33553">
        <time>1970-01-01T00:00:00+00:00</time>
        <ele>1969.0</ele>
      </trkpt>
      <trkpt lat="46.624609" lon="8.335559">
        <time>1970-01-01T00:00:00+00:00</time>
        <ele>1968.0</ele>
      </trkpt>
      <trkpt lat="46.624529" lon="8.335504">
        <time>1970-01-01T00:00:00+00:00</time>
        <ele>1962.0</ele>
      </trkpt>
      <trkpt lat="46.624545" lon="8.335442">
        <time>1970-01-01T00:00:00+00:00</time>
        <ele>1961.0</ele>
      </trkpt>
      <trkpt lat="46.624236" lon="8.335295">
        <time>1970-01-01T00:00:00+00:00</time>
        <ele>1944.0</ele>
      </trkpt>
      <trkpt lat="46.624173" lon="8.335236">
        <time>1970-01-01T00:00:00+00:00</time>
        <ele>1940.0</ele>
      </trkpt>
      <trkpt lat="46.624005" lon="8.33514">
        <time>1970-01-01T00:00:00+00:00</time>
        <ele>1933.0</ele>
      </trkpt>
      <trkpt lat="46.623916" lon="8.335103">
        <time>1970-01-01T00:00:00+00:00</time>
        <ele>1930.0</ele>
      </trkpt>
      <trkpt lat="46.623857" lon="8.335117">
        <time>1970-01-01T00:00:00+00:00</time>
        <ele>1930.0</ele>
      </trkpt>
      <trkpt lat="46.623847" lon="8.335091">
        <time>1970-01-01T00:00:00+00:00</time>
        <ele>1929.0</ele>
      </trkpt>
      <trkpt lat="46.623881" lon="8.334445">
        <time>1970-01-01T00:00:00+00:00</time>
        <ele>1922.0</ele>
      </trkpt>
      <trkpt lat="46.623861" lon="8.334402">
        <time>1970-01-01T00:00:00+00:00</time>
        <ele>1921.0</ele>
      </trkpt>
      <trkpt lat="46.623861" lon="8.334273">
        <time>1970-01-01T00:00:00+00:00</time>
        <ele>1922.0</ele>
      </trkpt>
      <trkpt lat="46.623792" lon="8.334265">
        <time>1970-01-01T00:00:00+00:00</time>
        <ele>1920.0</ele>
      </trkpt>
      <trkpt lat="46.623746" lon="8.334301">
        <time>1970-01-01T00:00:00+00:00</time>
        <ele>1918.0</ele>
      </trkpt>
      <trkpt lat="46.623511" lon="8.334236">
        <time>1970-01-01T00:00:00+00:00</time>
        <ele>1912.0</ele>
      </trkpt>
      <trkpt lat="46.623468" lon="8.334191">
        <time>1970-01-01T00:00:00+00:00</time>
        <ele>1910.0</ele>
      </trkpt>
      <trkpt lat="46.623431" lon="8.334193">
        <time>1970-01-01T00:00:00+00:00</time>
        <ele>1909.0</ele>
      </trkpt>
      <trkpt lat="46.623363" lon="8.334254">
        <time>1970-01-01T00:00:00+00:00</time>
        <ele>1908.0</ele>
      </trkpt>
      <trkpt lat="46.623285" lon="8.334228">
        <time>1970-01-01T00:00:00+00:00</time>
        <ele>1906.0</ele>
      </trkpt>
      <trkpt lat="46.623207" lon="8.334115">
        <time>1970-01-01T00:00:00+00:00</time>
        <ele>1903.0</ele>
      </trkpt>
      <trkpt lat="46.623184" lon="8.334038">
        <time>1970-01-01T00:00:00+00:00</time>
        <ele>1903.0</ele>
      </trkpt>
      <trkpt lat="46.62316" lon="8.334056">
        <time>1970-01-01T00:00:00+00:00</time>
        <ele>1902.0</ele>
      </trkpt>
      <trkpt lat="46.623133" lon="8.334032">
        <time>1970-01-01T00:00:00+00:00</time>
        <ele>1901.0</ele>
      </trkpt>
      <trkpt lat="46.623086" lon="8.334036">
        <time>1970-01-01T00:00:00+00:00</time>
        <ele>1900.0</ele>
      </trkpt>
      <trkpt lat="46.623057" lon="8.333941">
        <time>1970-01-01T00:00:00+00:00</time>
        <ele>1899.0</ele>
      </trkpt>
      <trkpt lat="46.623018" lon="8.333941">
        <time>1970-01-01T00:00:00+00:00</time>
        <ele>1898.0</ele>
      </trkpt>
      <trkpt lat="46.622977" lon="8.33389">
        <time>1970-01-01T00:00:00+00:00</time>
        <ele>1896.0</ele>
      </trkpt>
      <trkpt lat="46.622831" lon="8.333807">
        <time>1970-01-01T00:00:00+00:00</time>
        <ele>1892.0</ele>
      </trkpt>
      <trkpt lat="46.622781" lon="8.333754">
        <time>1970-01-01T00:00:00+00:00</time>
        <ele>1891.0</ele>
      </trkpt>
      <trkpt lat="46.622633" lon="8.333704">
        <time>1970-01-01T00:00:00+00:00</time>
        <ele>1888.0</ele>
      </trkpt>
      <trkpt lat="46.622549" lon="8.333619">
        <time>1970-01-01T00:00:00+00:00</time>
        <ele>1886.0</ele>
      </trkpt>
      <trkpt lat="46.622469" lon="8.333594">
        <time>1970-01-01T00:00:00+00:00</time>
        <ele>1884.0</ele>
      </trkpt>
      <trkpt lat="46.62232" lon="8.33342">
        <time>1970-01-01T00:00:00+00:00</time>
        <ele>1882.0</ele>
      </trkpt>
      <trkpt lat="46.622067" lon="8.333289">
        <time>1970-01-01T00:00:00+00:00</time>
        <ele>1877.0</ele>
      </trkpt>
      <trkpt lat="46.621935" lon="8.333115">
        <time>1970-01-01T00:00:00+00:00</time>
        <ele>1877.0</ele>
      </trkpt>
      <trkpt lat="46.621498" lon="8.332748">
        <time>1970-01-01T00:00:00+00:00</time>
        <ele>1877.0</ele>
      </trkpt>
      <trkpt lat="46.621449" lon="8.332667">
        <time>1970-01-01T00:00:00+00:00</time>
        <ele>1878.0</ele>
      </trkpt>
      <trkpt lat="46.621391" lon="8.33267">
        <time>1970-01-01T00:00:00+00:00</time>
        <ele>1876.0</ele>
      </trkpt>
      <trkpt lat="46.621336" lon="8.332613">
        <time>1970-01-01T00:00:00+00:00</time>
        <ele>1876.0</ele>
      </trkpt>
      <trkpt lat="46.621284" lon="8.332627">
        <time>1970-01-01T00:00:00+00:00</time>
        <ele>1875.0</ele>
      </trkpt>
      <trkpt lat="46.621207" lon="8.332555">
        <time>1970-01-01T00:00:00+00:00</time>
        <ele>1875.0</ele>
      </trkpt>
      <trkpt lat="46.621099" lon="8.33251">
        <time>1970-01-01T00:00:00+00:00</time>
        <ele>1873.0</ele>
      </trkpt>
      <trkpt lat="46.62099" lon="8.332435">
        <time>1970-01-01T00:00:00+00:00</time>
        <ele>1873.0</ele>
      </trkpt>
      <trkpt lat="46.620808" lon="8.332397">
        <time>1970-01-01T00:00:00+00:00</time>
        <ele>1868.0</ele>
      </trkpt>
      <trkpt lat="46.620774" lon="8.332368">
        <time>1970-01-01T00:00:00+00:00</time>
        <ele>1868.0</ele>
      </trkpt>
      <trkpt lat="46.620615" lon="8.332348">
        <time>1970-01-01T00:00:00+00:00</time>
        <ele>1862.0</ele>
      </trkpt>
      <trkpt lat="46.620568" lon="8.332301">
        <time>1970-01-01T00:00:00+00:00</time>
        <ele>1862.0</ele>
      </trkpt>
      <trkpt lat="46.62048" lon="8.332275">
        <time>1970-01-01T00:00:00+00:00</time>
        <ele>1860.0</ele>
      </trkpt>
      <trkpt lat="46.620213" lon="8.332052">
        <time>1970-01-01T00:00:00+00:00</time>
        <ele>1860.0</ele>
      </trkpt>
      <trkpt lat="46.620181" lon="8.332008">
        <time>1970-01-01T00:00:00+00:00</time>
        <ele>1860.0</ele>
      </trkpt>
      <trkpt lat="46.620096" lon="8.331957">
        <time>1970-01-01T00:00:00+00:00</time>
        <ele>1858.0</ele>
      </trkpt>
      <trkpt lat="46.619996" lon="8.331828">
        <time>1970-01-01T00:00:00+00:00</time>
        <ele>1857.0</ele>
      </trkpt>
      <trkpt lat="46.619896" lon="8.33162">
        <time>1970-01-01T00:00:00+00:00</time>
        <ele>1860.0</ele>
      </trkpt>
      <trkpt lat="46.619857" lon="8.33158">
        <time>1970-01-01T00:00:00+00:00</time>
        <ele>1860.0</ele>
      </trkpt>
      <trkpt lat="46.619787" lon="8.33156">
        <time>1970-01-01T00:00:00+00:00</time>
        <ele>1858.0</ele>
      </trkpt>
      <trkpt lat="46.619716" lon="8.331505">
        <time>1970-01-01T00:00:00+00:00</time>
        <ele>1857.0</ele>
      </trkpt>
      <trkpt lat="46.619355" lon="8.331365">
        <time>1970-01-01T00:00:00+00:00</time>
        <ele>1851.0</ele>
      </trkpt>
      <trkpt lat="46.619303" lon="8.331321">
        <time>1970-01-01T00:00:00+00:00</time>
        <ele>1851.0</ele>
      </trkpt>
      <trkpt lat="46.6192" lon="8.331176">
        <time>1970-01-01T00:00:00+00:00</time>
        <ele>1852.0</ele>
      </trkpt>
      <trkpt lat="46.619188" lon="8.331134">
        <time>1970-01-01T00:00:00+00:00</time>
        <ele>1853.0</ele>
      </trkpt>
      <trkpt lat="46.618907" lon="8.33093">
        <time>1970-01-01T00:00:00+00:00</time>
        <ele>1848.0</ele>
      </trkpt>
      <trkpt lat="46.618874" lon="8.330858">
        <time>1970-01-01T00:00:00+00:00</time>
        <ele>1849.0</ele>
      </trkpt>
      <trkpt lat="46.618801" lon="8.330856">
        <time>1970-01-01T00:00:00+00:00</time>
        <ele>1847.0</ele>
      </trkpt>
      <trkpt lat="46.618695" lon="8.330738">
        <time>1970-01-01T00:00:00+00:00</time>
        <ele>1849.0</ele>
      </trkpt>
      <trkpt lat="46.618558" lon="8.330726">
        <time>1970-01-01T00:00:00+00:00</time>
        <ele>1845.0</ele>
      </trkpt>
      <trkpt lat="46.618441" lon="8.330652">
        <time>1970-01-01T00:00:00+00:00</time>
        <ele>1845.0</ele>
      </trkpt>
      <trkpt lat="46.618328" lon="8.330523">
        <time>1970-01-01T00:00:00+00:00</time>
        <ele>1847.0</ele>
      </trkpt>
      <trkpt lat="46.618255" lon="8.330502">
        <time>1970-01-01T00:00:00+00:00</time>
        <ele>1845.0</ele>
      </trkpt>
      <trkpt lat="46.618185" lon="8.33045">
        <time>1970-01-01T00:00:00+00:00</time>
        <ele>1844.0</ele>
      </trkpt>
      <trkpt lat="46.618049" lon="8.330241">
        <time>1970-01-01T00:00:00+00:00</time>
        <ele>1845.0</ele>
      </trkpt>
      <trkpt lat="46.617971" lon="8.329977">
        <time>1970-01-01T00:00:00+00:00</time>
        <ele>1853.0</ele>
      </trkpt>
      <trkpt lat="46.617913" lon="8.329935">
        <time>1970-01-01T00:00:00+00:00</time>
        <ele>1853.0</ele>
      </trkpt>
      <trkpt lat="46.61786" lon="8.32986">
        <time>1970-01-01T00:00:00+00:00</time>
        <ele>1855.0</ele>
      </trkpt>
      <trkpt lat="46.617789" lon="8.329831">
        <time>1970-01-01T00:00:00+00:00</time>
        <ele>1854.0</ele>
      </trkpt>
      <trkpt lat="46.617684" lon="8.329654">
        <time>1970-01-01T00:00:00+00:00</time>
        <ele>1857.0</ele>
      </trkpt>
      <trkpt lat="46.617597" lon="8.3296">
        <time>1970-01-01T00:00:00+00:00</time>
        <ele>1853.0</ele>
      </trkpt>
      <trkpt lat="46.617437" lon="8.329439">
        <time>1970-01-01T00:00:00+00:00</time>
        <ele>1849.0</ele>
      </trkpt>
      <trkpt lat="46.617349" lon="8.329197">
        <time>1970-01-01T00:00:00+00:00</time>
        <ele>1851.0</ele>
      </trkpt>
      <trkpt lat="46.617251" lon="8.329086">
        <time>1970-01-01T00:00:00+00:00</time>
        <ele>1850.0</ele>
      </trkpt>
      <trkpt lat="46.61717" lon="8.328905">
        <time>1970-01-01T00:00:00+00:00</time>
        <ele>1852.0</ele>
      </trkpt>
      <trkpt lat="46.617107" lon="8.328857">
        <time>1970-01-01T00:00:00+00:00</time>
        <ele>1850.0</ele>
      </trkpt>
      <trkpt lat="46.616945" lon="8.328672">
        <time>1970-01-01T00:00:00+00:00</time>
        <ele>1848.0</ele>
      </trkpt>
      <trkpt lat="46.616875" lon="8.328416">
        <time>1970-01-01T00:00:00+00:00</time>
        <ele>1850.0</ele>
      </trkpt>
      <trkpt lat="46.616779" lon="8.328321">
        <time>1970-01-01T00:00:00+00:00</time>
        <ele>1851.0</ele>
      </trkpt>
      <trkpt lat="46.616739" lon="8.328233">
        <time>1970-01-01T00:00:00+00:00</time>
        <ele>1852.0</ele>
      </trkpt>
      <trkpt lat="46.616677" lon="8.328211">
        <time>1970-01-01T00:00:00+00:00</time>
        <ele>1852.0</ele>
      </trkpt>
      <trkpt lat="46.616607" lon="8.328097">
        <time>1970-01-01T00:00:00+00:00</time>
        <ele>1854.0</ele>
      </trkpt>
      <trkpt lat="46.616495" lon="8.327983">
        <time>1970-01-01T00:00:00+00:00</time>
        <ele>1855.0</ele>
      </trkpt>
      <trkpt lat="46.616378" lon="8.327925">
        <time>1970-01-01T00:00:00+00:00</time>
        <ele>1853.0</ele>
      </trkpt>
      <trkpt lat="46.616308" lon="8.327814">
        <time>1970-01-01T00:00:00+00:00</time>
        <ele>1853.0</ele>
      </trkpt>
      <trkpt lat="46.616179" lon="8.327472">
        <time>1970-01-01T00:00:00+00:00</time>
        <ele>1852.0</ele>
      </trkpt>
      <trkpt lat="46.616136" lon="8.327417">
        <time>1970-01-01T00:00:00+00:00</time>
        <ele>1851.0</ele>
      </trkpt>
      <trkpt lat="46.616128" lon="8.327367">
        <time>1970-01-01T00:00:00+00:00</time>
        <ele>1851.0</ele>
      </trkpt>
      <trkpt lat="46.616152" lon="8.327255">
        <time>1970-01-01T00:00:00+00:00</time>
        <ele>1853.0</ele>
      </trkpt>
      <trkpt lat="46.616146" lon="8.327201">
        <time>1970-01-01T00:00:00+00:00</time>
        <ele>1853.0</ele>
      </trkpt>
      <trkpt lat="46.616037" lon="8.326962">
        <time>1970-01-01T00:00:00+00:00</time>
        <ele>1852.0</ele>
      </trkpt>
      <trkpt lat="46.616015" lon="8.326765">
        <time>1970-01-01T00:00:00+00:00</time>
        <ele>1855.0</ele>
      </trkpt>
      <trkpt lat="46.615927" lon="8.326583">
        <time>1970-01-01T00:00:00+00:00</time>
        <ele>1854.0</ele>
      </trkpt>
      <trkpt lat="46.615867" lon="8.326258">
        <time>1970-01-01T00:00:00+00:00</time>
        <ele>1856.0</ele>
      </trkpt>
      <trkpt lat="46.615791" lon="8.325998">
        <time>1970-01-01T00:00:00+00:00</time>
        <ele>1857.0</ele>
      </trkpt>
      <trkpt lat="46.615681" lon="8.325725">
        <time>1970-01-01T00:00:00+00:00</time>
        <ele>1857.0</ele>
      </trkpt>
      <trkpt lat="46.615601" lon="8.325618">
        <time>1970-01-01T00:00:00+00:00</time>
        <ele>1853.0</ele>
      </trkpt>
      <trkpt lat="46.615578" lon="8.325544">
        <time>1970-01-01T00:00:00+00:00</time>
        <ele>1853.0</ele>
      </trkpt>
      <trkpt lat="46.615551" lon="8.325276">
        <time>1970-01-01T00:00:00+00:00</time>
        <ele>1857.0</ele>
      </trkpt>
      <trkpt lat="46.615516" lon="8.325122">
        <time>1970-01-01T00:00:00+00:00</time>
        <ele>1858.0</ele>
      </trkpt>
      <trkpt lat="46.615468" lon="8.325096">
        <time>1970-01-01T00:00:00+00:00</time>
        <ele>1855.0</ele>
      </trkpt>
      <trkpt lat="46.615432" lon="8.32503">
        <time>1970-01-01T00:00:00+00:00</time>
        <ele>1854.0</ele>
      </trkpt>
      <trkpt lat="46.615397" lon="8.324895">
        <time>1970-01-01T00:00:00+00:00</time>
        <ele>1854.0</ele>
      </trkpt>
      <trkpt lat="46.615312" lon="8.324692">
        <time>1970-01-01T00:00:00+00:00</time>
        <ele>1851.0</ele>
      </trkpt>
      <trkpt lat="46.615242" lon="8.324422">
        <time>1970-01-01T00:00:00+00:00</time>
        <ele>1851.0</ele>
      </trkpt>
      <trkpt lat="46.615006" lon="8.323704">
        <time>1970-01-01T00:00:00+00:00</time>
        <ele>1846.0</ele>
      </trkpt>
      <trkpt lat="46.614744" lon="8.322676">
        <time>1970-01-01T00:00:00+00:00</time>
        <ele>1853.0</ele>
      </trkpt>
      <trkpt lat="46.614562" lon="8.322238">
        <time>1970-01-01T00:00:00+00:00</time>
        <ele>1852.0</ele>
      </trkpt>
      <trkpt lat="46.61441" lon="8.321994">
        <time>1970-01-01T00:00:00+00:00</time>
        <ele>1849.0</ele>
      </trkpt>
      <trkpt lat="46.614388" lon="8.321871">
        <time>1970-01-01T00:00:00+00:00</time>
        <ele>1850.0</ele>
      </trkpt>
      <trkpt lat="46.614269" lon="8.321525">
        <time>1970-01-01T00:00:00+00:00</time>
        <ele>1851.0</ele>
      </trkpt>
      <trkpt lat="46.614245" lon="8.321355">
        <time>1970-01-01T00:00:00+00:00</time>
        <ele>1853.0</ele>
      </trkpt>
      <trkpt lat="46.614217" lon="8.321282">
        <time>1970-01-01T00:00:00+00:00</time>
        <ele>1854.0</ele>
      </trkpt>
      <trkpt lat="46.614188" lon="8.321264">
        <time>1970-01-01T00:00:00+00:00</time>
        <ele>1855.0</ele>
      </trkpt>
      <trkpt lat="46.614134" lon="8.321283">
        <time>1970-01-01T00:00:00+00:00</time>
        <ele>1855.0</ele>
      </trkpt>
      <trkpt lat="46.613998" lon="8.321719">
        <time>1970-01-01T00:00:00+00:00</time>
        <ele>1847.0</ele>
      </trkpt>
      <trkpt lat="46.613939" lon="8.321775">
        <time>1970-01-01T00:00:00+00:00</time>
        <ele>1845.0</ele>
      </trkpt>
      <trkpt lat="46.613866" lon="8.321764">
        <time>1970-01-01T00:00:00+00:00</time>
        <ele>1845.0</ele>
      </trkpt>
      <trkpt lat="46.613681" lon="8.321469">
        <time>1970-01-01T00:00:00+00:00</time>
        <ele>1848.0</ele>
      </trkpt>
      <trkpt lat="46.61346" lon="8.321005">
        <time>1970-01-01T00:00:00+00:00</time>
        <ele>1846.0</ele>
      </trkpt>
      <trkpt lat="46.613301" lon="8.320512">
        <time>1970-01-01T00:00:00+00:00</time>
        <ele>1846.0</ele>
      </trkpt>
      <trkpt lat="46.613007" lon="8.319918">
        <time>1970-01-01T00:00:00+00:00</time>
        <ele>1844.0</ele>
      </trkpt>
      <trkpt lat="46.612981" lon="8.319936">
        <time>1970-01-01T00:00:00+00:00</time>
        <ele>1843.0</ele>
      </trkpt>
      <trkpt lat="46.611995" lon="8.321535">
        <time>1970-01-01T00:00:00+00:00</time>
        <ele>1836.0</ele>
      </trkpt>
      <trkpt lat="46.611764" lon="8.321741">
        <time>1970-01-01T00:00:00+00:00</time>
        <ele>1836.0</ele>
      </trkpt>
      <trkpt lat="46.610357" lon="8.322397">
        <time>1970-01-01T00:00:00+00:00</time>
        <ele>1848.0</ele>
      </trkpt>
      <trkpt lat="46.610237" lon="8.322468">
        <time>1970-01-01T00:00:00+00:00</time>
        <ele>1851.0</ele>
      </trkpt>
      <trkpt lat="46.610285" lon="8.322705">
        <time>1970-01-01T00:00:00+00:00</time>
        <ele>1852.0</ele>
      </trkpt>
      <trkpt lat="46.610247" lon="8.322907">
        <time>1970-01-01T00:00:00+00:00</time>
        <ele>1856.0</ele>
      </trkpt>
      <trkpt lat="46.610095" lon="8.32305">
        <time>1970-01-01T00:00:00+00:00</time>
        <ele>1865.0</ele>
      </trkpt>
      <trkpt lat="46.60966" lon="8.322727">
        <time>1970-01-01T00:00:00+00:00</time>
        <ele>1857.0</ele>
      </trkpt>
      <trkpt lat="46.609149" lon="8.322488">
        <time>1970-01-01T00:00:00+00:00</time>
        <ele>1846.0</ele>
      </trkpt>
      <trkpt lat="46.609078" lon="8.322568">
        <time>1970-01-01T00:00:00+00:00</time>
        <ele>1846.0</ele>
      </trkpt>
      <trkpt lat="46.609031" lon="8.32254">
        <time>1970-01-01T00:00:00+00:00</time>
        <ele>1843.0</ele>
      </trkpt>
      <trkpt lat="46.608949" lon="8.322592">
        <time>1970-01-01T00:00:00+00:00</time>
        <ele>1840.0</ele>
      </trkpt>
      <trkpt lat="46.608917" lon="8.322712">
        <time>1970-01-01T00:00:00+00:00</time>
        <ele>1843.0</ele>
      </trkpt>
      <trkpt lat="46.608835" lon="8.322795">
        <time>1970-01-01T00:00:00+00:00</time>
        <ele>1842.0</ele>
      </trkpt>
      <trkpt lat="46.608756" lon="8.322913">
        <time>1970-01-01T00:00:00+00:00</time>
        <ele>1844.0</ele>
      </trkpt>
      <trkpt lat="46.60872" lon="8.322773">
        <time>1970-01-01T00:00:00+00:00</time>
        <ele>1836.0</ele>
      </trkpt>
      <trkpt lat="46.60851" lon="8.322869">
        <time>1970-01-01T00:00:00+00:00</time>
        <ele>1826.0</ele>
      </trkpt>
      <trkpt lat="46.608467" lon="8.32275">
        <time>1970-01-01T00:00:00+00:00</time>
        <ele>1817.0</ele>
      </trkpt>
      <trkpt lat="46.608292" lon="8.322895">
        <time>1970-01-01T00:00:00+00:00</time>
        <ele>1816.0</ele>
      </trkpt>
      <trkpt lat="46.608058" lon="8.322923">
        <time>1970-01-01T00:00:00+00:00</time>
        <ele>1811.0</ele>
      </trkpt>
      <trkpt lat="46.607892" lon="8.323165">
        <time>1970-01-01T00:00:00+00:00</time>
        <ele>1822.0</ele>
      </trkpt>
      <trkpt lat="46.607379" lon="8.323225">
        <time>1970-01-01T00:00:00+00:00</time>
        <ele>1803.0</ele>
      </trkpt>
      <trkpt lat="46.607236" lon="8.323357">
        <time>1970-01-01T00:00:00+00:00</time>
        <ele>1802.0</ele>
      </trkpt>
      <trkpt lat="46.607087" lon="8.32339">
        <time>1970-01-01T00:00:00+00:00</time>
        <ele>1798.0</ele>
      </trkpt>
      <trkpt lat="46.606843" lon="8.323148">
        <time>1970-01-01T00:00:00+00:00</time>
        <ele>1768.0</ele>
      </trkpt>
      <trkpt lat="46.606872" lon="8.323288">
        <time>1970-01-01T00:00:00+00:00</time>
        <ele>1778.0</ele>
      </trkpt>
      <trkpt lat="46.606821" lon="8.323335">
        <time>1970-01-01T00:00:00+00:00</time>
        <ele>1778.0</ele>
      </trkpt>
      <trkpt lat="46.606733" lon="8.323276">
        <time>1970-01-01T00:00:00+00:00</time>
        <ele>1769.0</ele>
      </trkpt>
      <trkpt lat="46.606458" lon="8.323456">
        <time>1970-01-01T00:00:00+00:00</time>
        <ele>1767.0</ele>
      </trkpt>
      <trkpt lat="46.60627" lon="8.323465">
        <time>1970-01-01T00:00:00+00:00</time>
        <ele>1756.0</ele>
      </trkpt>
      <trkpt lat="46.605889" lon="8.323882">
        <time>1970-01-01T00:00:00+00:00</time>
        <ele>1757.0</ele>
      </trkpt>
      <trkpt lat="46.605713" lon="8.323953">
        <time>1970-01-01T00:00:00+00:00</time>
        <ele>1751.0</ele>
      </trkpt>
      <trkpt lat="46.605638" lon="8.32404">
        <time>1970-01-01T00:00:00+00:00</time>
        <ele>1751.0</ele>
      </trkpt>
      <trkpt lat="46.605359" lon="8.32405">
        <time>1970-01-01T00:00:00+00:00</time>
        <ele>1736.0</ele>
      </trkpt>
      <trkpt lat="46.605102" lon="8.324238">
        <time>1970-01-01T00:00:00+00:00</time>
        <ele>1731.0</ele>
      </trkpt>
      <trkpt lat="46.604846" lon="8.324372">
        <time>1970-01-01T00:00:00+00:00</time>
        <ele>1728.0</ele>
      </trkpt>
      <trkpt lat="46.60472" lon="8.324333">
        <time>1970-01-01T00:00:00+00:00</time>
        <ele>1721.0</ele>
      </trkpt>
      <trkpt lat="46.604557" lon="8.324385">
        <time>1970-01-01T00:00:00+00:00</time>
        <ele>1721.0</ele>
      </trkpt>
      <trkpt lat="46.604309" lon="8.324313">
        <time>1970-01-01T00:00:00+00:00</time>
        <ele>1714.0</ele>
      </trkpt>
      <trkpt lat="46.604229" lon="8.324228">
        <time>1970-01-01T00:00:00+00:00</time>
        <ele>1709.0</ele>
      </trkpt>
      <trkpt lat="46.604173" lon="8.324247">
        <time>1970-01-01T00:00:00+00:00</time>
        <ele>1709.0</ele>
      </trkpt>
      <trkpt lat="46.603767" lon="8.324199">
        <time>1970-01-01T00:00:00+00:00</time>
        <ele>1699.0</ele>
      </trkpt>
      <trkpt lat="46.603642" lon="8.324249">
        <time>1970-01-01T00:00:00+00:00</time>
        <ele>1697.0</ele>
      </trkpt>
      <trkpt lat="46.603322" lon="8.324242">
        <time>1970-01-01T00:00:00+00:00</time>
        <ele>1689.0</ele>
      </trkpt>
      <trkpt lat="46.603195" lon="8.324389">
        <time>1970-01-01T00:00:00+00:00</time>
        <ele>1689.0</ele>
      </trkpt>
      <trkpt lat="46.603016" lon="8.324442">
        <time>1970-01-01T00:00:00+00:00</time>
        <ele>1685.0</ele>
      </trkpt>
      <trkpt lat="46.602943" lon="8.32438">
        <time>1970-01-01T00:00:00+00:00</time>
        <ele>1682.0</ele>
      </trkpt>
      <trkpt lat="46.602822" lon="8.324384">
        <time>1970-01-01T00:00:00+00:00</time>
        <ele>1680.0</ele>
      </trkpt>
      <trkpt lat="46.602704" lon="8.324451">
        <time>1970-01-01T00:00:00+00:00</time>
        <ele>1679.0</ele>
      </trkpt>
      <trkpt lat="46.602558" lon="8.324893">
        <time>1970-01-01T00:00:00+00:00</time>
        <ele>1680.0</ele>
      </trkpt>
      <trkpt lat="46.602382" lon="8.324962">
        <time>1970-01-01T00:00:00+00:00</time>
        <ele>1675.0</ele>
      </trkpt>
      <trkpt lat="46.602275" lon="8.32493">
        <time>1970-01-01T00:00:00+00:00</time>
        <ele>1671.0</ele>
      </trkpt>
      <trkpt lat="46.602178" lon="8.324941">
        <time>1970-01-01T00:00:00+00:00</time>
        <ele>1669.0</ele>
      </trkpt>
      <trkpt lat="46.602014" lon="8.324773">
        <time>1970-01-01T00:00:00+00:00</time>
        <ele>1663.0</ele>
      </trkpt>
      <trkpt lat="46.601939" lon="8.324803">
        <time>1970-01-01T00:00:00+00:00</time>
        <ele>1662.0</ele>
      </trkpt>
      <trkpt lat="46.60181" lon="8.324956">
        <time>1970-01-01T00:00:00+00:00</time>
        <ele>1660.0</ele>
      </trkpt>
      <trkpt lat="46.601747" lon="8.324937">
        <time>1970-01-01T00:00:00+00:00</time>
        <ele>1658.0</ele>
      </trkpt>
      <trkpt lat="46.601681" lon="8.32495">
        <time>1970-01-01T00:00:00+00:00</time>
        <ele>1656.0</ele>
      </trkpt>
      <trkpt lat="46.601603" lon="8.324915">
        <time>1970-01-01T00:00:00+00:00</time>
        <ele>1653.0</ele>
      </trkpt>
      <trkpt lat="46.601496" lon="8.324915">
        <time>1970-01-01T00:00:00+00:00</time>
        <ele>1649.0</ele>
      </trkpt>
      <trkpt lat="46.601441" lon="8.324851">
        <time>1970-01-01T00:00:00+00:00</time>
        <ele>1647.0</ele>
      </trkpt>
      <trkpt lat="46.601375" lon="8.324859">
        <time>1970-01-01T00:00:00+00:00</time>
        <ele>1646.0</ele>
      </trkpt>
      <trkpt lat="46.601252" lon="8.324437">
        <time>1970-01-01T00:00:00+00:00</time>
        <ele>1636.0</ele>
      </trkpt>
      <trkpt lat="46.601103" lon="8.324379">
        <time>1970-01-01T00:00:00+00:00</time>
        <ele>1630.0</ele>
      </trkpt>
      <trkpt lat="46.600805" lon="8.324331">
        <time>1970-01-01T00:00:00+00:00</time>
        <ele>1623.0</ele>
      </trkpt>
      <trkpt lat="46.60066" lon="8.324244">
        <time>1970-01-01T00:00:00+00:00</time>
        <ele>1621.0</ele>
      </trkpt>
      <trkpt lat="46.600536" lon="8.324218">
        <time>1970-01-01T00:00:00+00:00</time>
        <ele>1620.0</ele>
      </trkpt>
      <trkpt lat="46.600335" lon="8.324028">
        <time>1970-01-01T00:00:00+00:00</time>
        <ele>1621.0</ele>
      </trkpt>
      <trkpt lat="46.599637" lon="8.324044">
        <time>1970-01-01T00:00:00+00:00</time>
        <ele>1618.0</ele>
      </trkpt>
      <trkpt lat="46.59944" lon="8.324238">
        <time>1970-01-01T00:00:00+00:00</time>
        <ele>1617.0</ele>
      </trkpt>
      <trkpt lat="46.599293" lon="8.324298">
        <time>1970-01-01T00:00:00+00:00</time>
        <ele>1616.0</ele>
      </trkpt>
      <trkpt lat="46.598994" lon="8.324471">
        <time>1970-01-01T00:00:00+00:00</time>
        <ele>1612.0</ele>
      </trkpt>
      <trkpt lat="46.598887" lon="8.324621">
        <time>1970-01-01T00:00:00+00:00</time>
        <ele>1613.0</ele>
      </trkpt>
      <trkpt lat="46.598684" lon="8.324785">
        <time>1970-01-01T00:00:00+00:00</time>
        <ele>1609.0</ele>
      </trkpt>
      <trkpt lat="46.59821" lon="8.324896">
        <time>1970-01-01T00:00:00+00:00</time>
        <ele>1606.0</ele>
      </trkpt>
      <trkpt lat="46.598226" lon="8.324751">
        <time>1970-01-01T00:00:00+00:00</time>
        <ele>1604.0</ele>
      </trkpt>
      <trkpt lat="46.598065" lon="8.324742">
        <time>1970-01-01T00:00:00+00:00</time>
        <ele>1603.0</ele>
      </trkpt>
      <trkpt lat="46.597971" lon="8.324791">
        <time>1970-01-01T00:00:00+00:00</time>
        <ele>1602.0</ele>
      </trkpt>
      <trkpt lat="46.597678" lon="8.325024">
        <time>1970-01-01T00:00:00+00:00</time>
        <ele>1604.0</ele>
      </trkpt>
    </trkseg>
  </trk>
</gpx>
